軌道要素
Epoch 1997 Feb. 1.0 TT = JDT 2450480.5
T 1997 Feb. 12.62975 TT MPC
q 3.8322303 (2000.0) P Q
n 0.05950555 Peri. 162.76113 -0.94344666 +0.32206545
a 6.4977707 Node 36.32996 -0.31766481 -0.81035449
e 0.4102238 Incl. 7.62674 -0.09485499 -0.48948897
P 16.6
From 257 observations 1997 June 1-2012 Oct. 23, mean residual 0".5.
|